Montague, CA

6:54 PM PDT on April 21, 2018 (GMT -0700)
Siskiyou County

Weather History for KSIY - February, 2013

Change the Weather History Date:

Friday, February 8, 2013

  Actual Average Record
Temperature  
Mean Temperature 35 °F 38 °F  
Max Temperature 43 °F 48 °F 66 °F (2016)
Min Temperature 27 °F 27 °F 4 °F (1989)
Degree Days  
Heating Degree Days 30 27  
Month to date heating degree days 223 224  
Since 1 July heating degree days 3187 3376  
Cooling Degree Days 0 0  
Month to date cooling degree days 0 0  
Year to date cooling degree days 0 0  
Moisture  
Dew Point 25 °F    
Average Humidity 74    
Maximum Humidity 92    
Minimum Humidity 53    
Precipitation  
Precipitation T in 0.07 in 1.90 in (1960)
Month to date precipitation 0.22 0.51  
Year to date precipitation 0.93 2.71  
Sea Level Pressure  
Sea Level Pressure 30.15 in    
Wind  
Wind Speed 9 mph (North)    
Max Wind Speed 24 mph    
Max Gust Speed 29 mph    
Visibility 10 miles    
Events      
T = Trace of Precipitation, MM = Missing Value Source: NWS Daily Summary

Daily Weather History Graph

Daily Weather History Graph

Search for Another Location

Airport or City:

Astronomy

Feb. 08, 2013 Rise Set
Actual Time 7:13 AM PST 5:34 PM PST
Civil Twilight 6:45 AM PST 6:03 PM PST
Nautical Twilight 6:12 AM PST 6:36 PM PST
Astronomical Twilight 5:39 AM PST 7:09 PM PST
Moon 5:47 AM PST (2/8) 4:14 PM PST (2/8)
Length of Visible Light 11h 18m
Length of Day
10h 20m
Waning Crescent, 3% of the Moon is Illuminated
Feb 8
Waning Crescent
Feb 9
New
Feb 17
First Quarter
Feb 25
Full
Mar 4
Last Quarter

Hourly Weather History & Observations

Time (PST) Temp. Windchill Dew Point Humidity Pressure Visibility Wind Dir Wind Speed Gust Speed Precip Events Conditions
12:53 AM 33.1 °F 26.1 °F 30.9 °F 92% 30.05 in 10.0 mi NNE 8.1 mph - 0.00 in   Overcast
1:53 AM 33.1 °F 27.7 °F 30.9 °F 92% 30.05 in 10.0 mi ENE 5.8 mph - N/A   Scattered Clouds
2:53 AM 30.0 °F 25.2 °F 27.0 °F 88% 30.06 in 10.0 mi North 4.6 mph - N/A   Clear
3:53 AM 28.9 °F 18.6 °F 27.0 °F 92% 30.07 in 10.0 mi North 12.7 mph - N/A   Clear
4:53 AM 27.0 °F 17.3 °F 25.0 °F 92% 30.10 in 10.0 mi North 10.4 mph - N/A   Clear
5:53 AM 30.0 °F 24.1 °F 25.0 °F 82% 30.11 in 10.0 mi North 5.8 mph - N/A   Clear
6:53 AM 28.0 °F 24.2 °F 23.0 °F 81% 30.13 in 10.0 mi Variable 3.5 mph - N/A   Clear
7:53 AM 27.0 °F 19.5 °F 23.0 °F 85% 30.16 in 10.0 mi NNE 6.9 mph - N/A   Clear
8:53 AM 28.9 °F - 25.0 °F 85% 30.18 in 10.0 mi Calm Calm - N/A   Clear
9:53 AM 33.1 °F 26.1 °F 28.0 °F 82% 30.19 in 10.0 mi North 8.1 mph - N/A   Clear
10:53 AM 35.1 °F 29.3 °F 28.0 °F 76% 30.19 in 10.0 mi NNE 6.9 mph - N/A   Clear
11:53 AM 39.0 °F 34.0 °F 27.0 °F 62% 30.16 in 10.0 mi NNW 6.9 mph - N/A   Clear
12:53 PM 41.0 °F 35.8 °F 26.1 °F 55% 30.14 in 10.0 mi North 8.1 mph 18.4 mph N/A   Clear
1:53 PM 43.0 °F 35.4 °F 27.0 °F 53% 30.12 in 10.0 mi NNW 16.1 mph - N/A   Clear
2:53 PM 41.0 °F 31.9 °F 26.1 °F 55% 30.14 in 10.0 mi NNW 19.6 mph 25.3 mph N/A   Clear
3:53 PM 39.9 °F 31.1 °F 25.0 °F 55% 30.15 in 10.0 mi North 17.3 mph 26.5 mph N/A   Clear
4:53 PM 37.9 °F 30.5 °F 24.1 °F 57% 30.16 in 10.0 mi North 11.5 mph - N/A   Mostly Cloudy
5:53 PM 36.0 °F 28.5 °F 23.0 °F 59% 30.18 in 10.0 mi North 10.4 mph - N/A   Overcast
6:53 PM 35.1 °F 25.9 °F 24.1 °F 64% 30.19 in 10.0 mi North 13.8 mph - N/A   Clear
7:53 PM 32.0 °F 24.2 °F 24.1 °F 73% 30.21 in 10.0 mi North 9.2 mph - N/A   Clear
8:53 PM 30.9 °F 24.3 °F 23.0 °F 72% 30.22 in 10.0 mi North 6.9 mph - N/A   Clear
9:53 PM 28.9 °F 21.1 °F 21.9 °F 75% 30.23 in 10.0 mi NNE 8.1 mph - N/A   Clear
10:53 PM 28.9 °F 21.9 °F 21.9 °F 75% 30.23 in 10.0 mi NNE 6.9 mph - N/A   Clear
11:53 PM 28.0 °F 21.7 °F 21.0 °F 75% 30.23 in 10.0 mi NNE 5.8 mph - N/A   Clear